Eagle River, WI

12:00 AM CDT on May 22, 2018 (GMT -0500)
Eagle River Union

Weather History for KEGV - December, 2013

Change the Weather History Date:

Tuesday, December 3, 2013

  Actual Average Record
Temperature  
Mean Temperature 26 °F -  
Max Temperature 30 °F 29 °F 57 °F (1998)
Min Temperature 23 °F 16 °F -11 °F (2002)
Degree Days  
Heating Degree Days 38    
Moisture  
Dew Point 24 °F    
Average Humidity 88    
Maximum Humidity 99    
Minimum Humidity 81    
Precipitation  
Precipitation 0.00 in - - ()
Sea Level Pressure  
Sea Level Pressure 29.80 in    
Wind  
Wind Speed 10 mph (East)    
Max Wind Speed 16 mph    
Max Gust Speed 23 mph    
Visibility 5 miles    
Events Snow    
Averages and records for this station are not official NWS values.
T = Trace of Precipitation, MM = Missing Value Source: NWS Daily Summary

Daily Weather History Graph

Daily Weather History Graph

Search for Another Location

Airport or City:

Astronomy

Dec. 03, 2013 Rise Set
Actual Time 7:20 AM CST 4:13 PM CST
Civil Twilight 6:46 AM CST 4:46 PM CST
Nautical Twilight 6:09 AM CST 5:24 PM CST
Astronomical Twilight 5:33 AM CST 6:00 PM CST
Moon 7:48 AM CST (12/3) 5:17 PM CST (12/3)
Length of Visible Light 10h 00m
Length of Day
8h 52m
New Moon, 1% of the Moon is Illuminated
Dec 3
New Moon
Dec 9
First Quarter
Dec 17
Full
Dec 25
Last Quarter
Jan 1
New

Hourly Weather History & Observations

Time (CST) Temp. Windchill Dew Point Humidity Pressure Visibility Wind Dir Wind Speed Gust Speed Precip Events Conditions
12:15 AM 30.0 °F 21.1 °F 25.3 °F 83% 29.75 in 10.0 mi ESE 10.4 mph 17.3 mph N/A   Overcast
12:35 AM 30.0 °F 20.5 °F 25.2 °F 82% 29.75 in 10.0 mi ESE 11.5 mph 18.4 mph N/A   Overcast
12:55 AM 29.8 °F 20.9 °F 25.2 °F 83% 29.75 in 7.0 mi ESE 10.4 mph 17.3 mph N/A Snow Light Snow
1:15 AM 29.5 °F 21.8 °F 25.7 °F 86% 29.75 in 1.8 mi ESE 8.1 mph - N/A Snow Light Snow
1:35 AM 29.3 °F 21.5 °F 28.4 °F 96% 29.75 in 1.0 mi ESE 8.1 mph - N/A Snow Snow
1:55 AM 29.1 °F 21.3 °F 28.4 °F 97% 29.75 in 1.2 mi East 8.1 mph - N/A Snow Snow
2:15 AM 28.9 °F 19.8 °F 28.4 °F 98% 29.75 in 1.2 mi East 10.4 mph - N/A Snow Light Snow
2:35 AM 28.9 °F 19.2 °F 28.4 °F 98% 29.74 in 1.2 mi East 11.5 mph 17.3 mph N/A Snow Light Snow
2:55 AM 28.9 °F 20.4 °F 28.2 °F 97% 29.74 in 2.0 mi East 9.2 mph - N/A Snow Light Snow
3:15 AM 29.1 °F 20.6 °F 28.2 °F 96% 29.74 in 2.0 mi East 9.2 mph - N/A Snow Light Snow
3:35 AM 28.9 °F 20.4 °F 28.2 °F 97% 29.73 in 1.2 mi East 9.2 mph - N/A Snow Light Snow
3:55 AM 28.9 °F 20.4 °F 28.4 °F 98% 29.73 in 0.8 mi ESE 9.2 mph - N/A Snow Snow
4:15 AM 28.9 °F 20.4 °F 28.4 °F 98% 29.74 in 0.8 mi East 9.2 mph - N/A Snow Snow
4:35 AM 28.9 °F 20.4 °F 28.6 °F 99% 29.74 in 0.8 mi ESE 9.2 mph - N/A Snow Snow
4:55 AM 28.9 °F 19.8 °F 28.4 °F 98% 29.74 in 1.0 mi East 10.4 mph - N/A Snow Snow
5:15 AM 28.9 °F 20.4 °F 28.4 °F 98% 29.74 in 3.0 mi ESE 9.2 mph - N/A Snow Light Snow
5:35 AM 29.1 °F 20.6 °F 28.4 °F 97% 29.75 in 2.5 mi ESE 9.2 mph - N/A Snow Light Snow
5:55 AM 29.1 °F 21.3 °F 28.4 °F 97% 29.75 in 1.5 mi East 8.1 mph - N/A Snow Light Snow
6:15 AM 29.1 °F 21.3 °F 28.4 °F 97% 29.76 in 3.0 mi East 8.1 mph - N/A Snow Light Snow
6:35 AM 28.9 °F 21.1 °F 28.4 °F 98% 29.76 in 0.5 mi ESE 8.1 mph - N/A Snow Heavy Snow
6:55 AM 28.8 °F 21.7 °F 28.4 °F 99% 29.77 in 1.8 mi East 6.9 mph - N/A Snow Light Snow
7:15 AM 28.4 °F 21.2 °F 28.0 °F 99% 29.76 in 2.5 mi East 6.9 mph - N/A Snow Light Snow
7:35 AM 28.4 °F 21.2 °F 28.0 °F 99% 29.77 in 2.5 mi East 6.9 mph - N/A Snow Light Snow
7:55 AM 28.8 °F 20.9 °F 28.0 °F 97% 29.78 in 3.0 mi East 8.1 mph - N/A Snow Light Snow
8:15 AM 28.9 °F 19.8 °F 28.0 °F 96% 29.79 in 2.5 mi East 10.4 mph - N/A Snow Light Snow
8:35 AM 28.8 °F 19.0 °F 27.5 °F 95% 29.80 in 1.5 mi East 11.5 mph - N/A Snow Light Snow
8:55 AM 28.4 °F 18.5 °F 27.3 °F 96% 29.80 in 1.0 mi East 11.5 mph - N/A Snow Light Snow
9:15 AM 28.0 °F 19.3 °F 27.1 °F 96% 29.80 in 1.2 mi East 9.2 mph - N/A Snow Light Snow
9:35 AM 27.7 °F 17.1 °F 25.7 °F 92% 29.81 in 2.5 mi East 12.7 mph - N/A Snow Light Snow
9:55 AM 27.5 °F 16.3 °F 25.5 °F 92% 29.82 in 3.0 mi East 13.8 mph 18.4 mph N/A Snow Light Snow
10:15 AM 27.5 °F 15.9 °F 24.1 °F 87% 29.82 in 5.0 mi East 15.0 mph 20.7 mph N/A Snow Light Snow
10:35 AM 27.3 °F 16.6 °F 22.8 °F 83% 29.82 in 7.0 mi East 12.7 mph 21.9 mph N/A Snow Light Snow
10:55 AM 27.3 °F 16.6 °F 22.5 °F 82% 29.82 in 10.0 mi East 12.7 mph 23.0 mph N/A Snow Light Snow
11:15 AM 27.5 °F 16.3 °F 22.6 °F 82% 29.82 in 10.0 mi East 13.8 mph 18.4 mph N/A   Overcast
11:35 AM 27.3 °F 16.6 °F 22.3 °F 81% 29.82 in 10.0 mi East 12.7 mph 20.7 mph N/A   Overcast
11:55 AM 27.3 °F 15.2 °F 22.1 °F 81% 29.82 in 10.0 mi East 16.1 mph 21.9 mph N/A Snow Light Snow
12:15 PM 27.0 °F 16.7 °F 21.7 °F 81% 29.82 in 10.0 mi East 11.5 mph 18.4 mph N/A   Overcast
12:35 PM 26.6 °F 15.7 °F 21.7 °F 82% 29.81 in 10.0 mi East 12.7 mph 19.6 mph N/A   Overcast
12:55 PM 26.2 °F 14.2 °F 21.7 °F 83% 29.81 in 10.0 mi East 15.0 mph 20.7 mph N/A   Overcast
1:15 PM 26.2 °F 15.2 °F 21.4 °F 82% 29.81 in 10.0 mi East 12.7 mph - N/A   Overcast
1:35 PM 26.2 °F 15.2 °F 21.4 °F 82% 29.80 in 10.0 mi East 12.7 mph - N/A   Overcast
1:55 PM 26.2 °F 17.1 °F 21.4 °F 82% 29.80 in 10.0 mi East 9.2 mph 19.6 mph N/A   Overcast
2:15 PM 26.1 °F 16.2 °F 21.2 °F 82% 29.80 in 10.0 mi East 10.4 mph 17.3 mph N/A   Overcast
2:35 PM 25.7 °F 14.6 °F 21.2 °F 83% 29.80 in 10.0 mi East 12.7 mph 19.6 mph N/A   Overcast
2:55 PM 25.7 °F 15.7 °F 21.2 °F 83% 29.80 in 10.0 mi East 10.4 mph 18.4 mph N/A   Overcast
3:15 PM 25.7 °F 16.4 °F 21.2 °F 83% 29.81 in 10.0 mi East 9.2 mph 16.1 mph N/A   Overcast
3:35 PM 25.5 °F 14.9 °F 21.0 °F 83% 29.82 in 10.0 mi East 11.5 mph - N/A   Overcast
3:55 PM 25.3 °F 16.7 °F 21.0 °F 84% 29.82 in 10.0 mi East 8.1 mph - N/A   Overcast
4:15 PM 25.3 °F 16.7 °F 20.8 °F 83% 29.82 in 10.0 mi East 8.1 mph - N/A   Overcast
4:35 PM 25.3 °F 16.0 °F 20.3 °F 81% 29.82 in 10.0 mi East 9.2 mph - N/A Snow Light Snow
4:55 PM 25.2 °F 14.4 °F 20.5 °F 82% 29.82 in 4.0 mi East 11.5 mph 16.1 mph N/A Snow Light Snow
5:15 PM 24.8 °F 15.3 °F 20.7 °F 84% 29.82 in 1.8 mi ENE 9.2 mph 18.4 mph N/A Snow Light Snow
5:35 PM 24.8 °F 15.3 °F 20.8 °F 85% 29.82 in 2.0 mi ENE 9.2 mph - N/A Snow Light Snow
5:55 PM 24.6 °F 15.8 °F 20.8 °F 86% 29.82 in 2.0 mi ENE 8.1 mph - N/A Snow Light Snow
6:15 PM 24.4 °F 14.2 °F 20.3 °F 84% 29.82 in 2.0 mi East 10.4 mph - N/A Snow Light Snow
6:35 PM 24.3 °F 15.4 °F 20.3 °F 85% 29.82 in 1.8 mi ENE 8.1 mph - N/A Snow Light Snow
6:55 PM 23.9 °F 13.5 °F 20.1 °F 85% 29.82 in 2.0 mi East 10.4 mph - N/A Snow Light Snow
7:15 PM 23.9 °F 14.2 °F 20.1 °F 85% 29.82 in 2.0 mi ENE 9.2 mph - N/A Snow Light Snow
7:35 PM 23.9 °F 15.0 °F 19.9 °F 85% 29.83 in 3.0 mi ENE 8.1 mph - N/A Snow Light Snow
7:55 PM 23.7 °F 14.0 °F 19.4 °F 84% 29.83 in 5.0 mi East 9.2 mph - N/A Snow Light Snow
8:15 PM 23.7 °F 12.1 °F 19.4 °F 84% 29.83 in 3.0 mi ENE 12.7 mph - N/A Snow Light Snow
8:35 PM 23.5 °F 14.5 °F 19.2 °F 84% 29.84 in 5.0 mi ENE 8.1 mph - N/A Snow Light Snow
8:55 PM 23.5 °F 13.7 °F 19.2 °F 84% 29.84 in 7.0 mi ENE 9.2 mph - N/A Snow Light Snow
9:15 PM 23.5 °F 14.5 °F 19.2 °F 84% 29.84 in 4.0 mi ENE 8.1 mph - N/A Snow Light Snow
9:35 PM 23.5 °F 15.4 °F 19.2 °F 84% 29.84 in 10.0 mi ENE 6.9 mph - N/A Snow Light Snow
9:55 PM 23.5 °F 13.7 °F 19.2 °F 84% 29.84 in 7.0 mi ENE 9.2 mph - N/A Snow Light Snow
10:15 PM 23.5 °F 15.4 °F 19.2 °F 84% 29.83 in 10.0 mi ENE 6.9 mph - N/A   Overcast
10:35 PM 23.5 °F 13.7 °F 19.2 °F 84% 29.82 in 10.0 mi ENE 9.2 mph - N/A   Overcast
10:55 PM 23.5 °F 13.7 °F 19.2 °F 84% 29.82 in 10.0 mi ENE 9.2 mph - N/A   Overcast
11:15 PM 23.5 °F 16.4 °F 19.2 °F 84% 29.84 in 10.0 mi ENE 5.8 mph - N/A   Overcast
11:35 PM 23.5 °F 15.4 °F 19.2 °F 84% 29.84 in 10.0 mi ENE 6.9 mph - N/A   Overcast
11:55 PM 23.5 °F 15.4 °F 19.4 °F 84% 29.82 in 10.0 mi East 6.9 mph - N/A   Overcast